Alton, IL

2:15 PM CST on December 05, 2019 (GMT -0600)
Saint Louis Regional

Weather History for KALN - November, 2019

Change the Weather History Date:

Saturday, November 16, 2019

  Actual Average Record
Temperature  
Mean Temperature 33 °F -  
Max Temperature 44 °F 53 °F 75 °F (2001)
Min Temperature 22 °F 36 °F 19 °F (1997)
Degree Days  
Heating Degree Days 32    
Moisture  
Dew Point 28 °F    
Average Humidity 92    
Maximum Humidity 100    
Minimum Humidity 61    
Precipitation  
Precipitation 0.00 in - - ()
Sea Level Pressure  
Sea Level Pressure 30.30 in    
Wind  
Wind Speed 2 mph (East)    
Max Wind Speed 9 mph    
Max Gust Speed -    
Visibility 8 miles    
Events      
Averages and records for this station are not official NWS values.
T = Trace of Precipitation, MM = Missing Value Source: NWS Daily Summary

Daily Weather History Graph

Daily Weather History Graph

Search for Another Location

Airport or City:

Astronomy

Nov. 16, 2019 Rise Set
Actual Time 6:43 AM CST 4:45 PM CST
Civil Twilight 6:15 AM CST 5:14 PM CST
Nautical Twilight 5:42 AM CST 5:46 PM CST
Astronomical Twilight 5:11 AM CST 6:18 PM CST
Moon 8:19 PM CST (11/16) 10:36 AM CST (11/16)
Length of Visible Light 10h 59m
Length of Day
10h 02m
Waning Gibbous, 82% of the Moon is Illuminated
Nov 16
Waning Gibbous
Nov 19
Last Quarter
Nov 26
New
Dec 4
First Quarter
Dec 11
Full

Hourly Weather History & Observations

Time (CST) Temp. Windchill Dew Point Humidity Pressure Visibility Wind Dir Wind Speed Gust Speed Precip Events Conditions
12:15 AM 26.2 °F - 26.1 °F 99% 30.36 in 10.0 mi Calm Calm - N/A   Clear
12:35 AM 26.4 °F - 26.2 °F 99% 30.36 in 10.0 mi Calm Calm - N/A   Clear
12:55 AM 25.9 °F - 25.9 °F 100% 30.36 in 10.0 mi Calm Calm - N/A   Clear
1:15 AM 25.2 °F - 25.2 °F 100% 30.36 in 10.0 mi Calm Calm - N/A   Clear
1:35 AM 25.7 °F - 25.7 °F 100% 30.36 in 10.0 mi Calm Calm - N/A   Clear
1:55 AM 25.9 °F - 25.9 °F 100% 30.36 in 7.0 mi Calm Calm - N/A   Clear
2:35 AM 24.6 °F - 24.6 °F 100% 30.36 in 10.0 mi Calm Calm - N/A   Clear
2:55 AM 24.4 °F - 24.4 °F 100% 30.36 in 7.0 mi Calm Calm - N/A   Clear
3:15 AM 24.3 °F - 24.3 °F 100% 30.36 in 7.0 mi Calm Calm - N/A   Clear
3:35 AM 24.3 °F - 24.3 °F 100% 30.36 in 7.0 mi Calm Calm - N/A   Clear
3:55 AM 24.6 °F - 24.6 °F 100% 30.36 in 7.0 mi Calm Calm - N/A   Clear
4:15 AM 26.1 °F 21.9 °F 26.1 °F 100% 30.36 in 7.0 mi NE 3.5 mph - N/A   Clear
4:35 AM 26.2 °F - 26.2 °F 100% 30.36 in 7.0 mi Calm Calm - N/A   Clear
4:55 AM 24.8 °F - 24.8 °F 100% 30.37 in 7.0 mi Calm Calm - N/A   Clear
5:15 AM 23.7 °F - 23.7 °F 100% 30.37 in 5.0 mi Calm Calm - N/A   Clear
5:35 AM 24.1 °F - 24.1 °F 100% 30.37 in 5.0 mi Calm Calm - N/A   Clear
5:55 AM 22.5 °F - 22.5 °F 100% 30.37 in 5.0 mi Calm Calm - N/A   Clear
6:15 AM 23.0 °F - 23.0 °F 100% 30.37 in 5.0 mi Calm Calm - N/A   Clear
6:35 AM 23.0 °F - 23.0 °F 100% 30.38 in 5.0 mi Calm Calm - N/A   Clear
6:50 AM 23.0 °F - 23.0 °F 100% 30.38 in 5.0 mi Calm Calm - N/A   Clear
7:48 AM 30.2 °F 25.4 °F 28.4 °F 93% 30.37 in 6.0 mi Variable 4.6 mph - N/A   Partly Cloudy
8:50 AM 35.6 °F 29.9 °F 32.0 °F 87% 30.37 in 8.0 mi East 6.9 mph - N/A   Partly Cloudy
9:47 AM 37.4 °F 32.1 °F 33.8 °F 87% 30.36 in 10.0 mi East 6.9 mph - N/A   Scattered Clouds
10:45 AM 39.2 °F 35.0 °F 33.8 °F 81% 30.34 in 10.0 mi ESE 5.8 mph - N/A   Mostly Cloudy
11:50 AM 41.0 °F 39.0 °F 33.8 °F 76% 30.31 in 10.0 mi Variable 3.5 mph - N/A   Mostly Cloudy
12:50 PM 44.6 °F 42.2 °F 33.8 °F 66% 30.27 in 10.0 mi Variable 4.6 mph - N/A   Mostly Cloudy
1:50 PM 44.6 °F 41.4 °F 32.0 °F 61% 30.26 in 10.0 mi East 5.8 mph - N/A   Mostly Cloudy
2:50 PM 44.6 °F 40.7 °F 33.8 °F 66% 30.24 in 10.0 mi East 6.9 mph - N/A   Mostly Cloudy
3:50 PM 44.6 °F 39.7 °F 33.8 °F 66% 30.22 in 10.0 mi East 9.2 mph - N/A   Mostly Cloudy
4:45 PM 42.8 °F 38.6 °F 32.0 °F 66% 30.21 in 10.0 mi East 6.9 mph - N/A   Mostly Cloudy
5:48 PM 37.4 °F 32.8 °F 32.0 °F 81% 30.21 in 10.0 mi East 5.8 mph - N/A   Scattered Clouds
6:47 PM 35.6 °F 30.7 °F 32.0 °F 87% 30.19 in 10.0 mi East 5.8 mph - N/A   Partly Cloudy
7:50 PM 33.8 °F 30.8 °F 30.2 °F 87% 30.20 in 10.0 mi ESE 3.5 mph - N/A   Partly Cloudy
8:50 PM 32.0 °F 26.4 °F 32.0 °F 100% 30.18 in 7.0 mi East 5.8 mph - N/A   Partly Cloudy
9:50 PM 32.0 °F 24.2 °F 30.2 °F 93% 30.18 in 7.0 mi East 9.2 mph - N/A   Partly Cloudy
10:15 PM 32.0 °F 28.7 °F 30.6 °F 94% 30.17 in 7.0 mi East 3.5 mph - N/A   Clear
10:35 PM 32.0 °F - 31.1 °F 96% 30.17 in 7.0 mi Calm Calm - N/A   Clear
10:55 PM 29.5 °F 25.9 °F 28.9 °F 98% 30.17 in 7.0 mi East 3.5 mph - N/A   Clear
11:15 PM 30.2 °F 25.4 °F 29.8 °F 99% 30.17 in 7.0 mi East 4.6 mph - N/A   Clear
11:35 PM 30.4 °F - 30.4 °F 100% 30.17 in 7.0 mi Calm Calm - N/A   Clear
11:55 PM 29.1 °F - 29.1 °F 100% 30.18 in 5.0 mi Calm Calm - N/A   Clear